DW8084 Weather Reports


time (UTC)temp
C
wind
direction
speed
KPH
gust
KPH
rain 1hr
cm
rain 24hr
cm
rain mn
cm
humidity
%
barometer
mb
20260510214204 8 73 1.6 6.4 0.00 0.00 0.00 69
20260510213417 8 70 1.6 3.2 0.00 0.00 0.00 69
20260510212203 8 69 1.6 4.8 0.00 0.00 0.00 68
20260510211203 8 73 1.6 4.8 0.00 0.00 0.00 68
20260510210203 8 72 0.0 1.6 0.00 0.00 0.00 67
20260510205205 8 76 0.0 1.6 0.00 0.00 0.00 66
20260510204204 9 72 0.0 4.8 0.00 0.00 0.00 65
20260510203206 9 67 0.0 3.2 0.00 0.00 0.00 64
20260510202203 10 63 1.6 4.8 0.00 0.00 0.00 63
20260510201205 10 61 1.6 8.0 0.00 0.00 0.00 62
20260510200205 10 58 1.6 8.0 0.00 0.00 0.00 61
20260510195205 11 55 3.2 11.3 0.00 0.00 0.00 60
20260510194417 11 58 3.2 9.7 0.00 0.00 0.00 59
20260510193205 11 52 3.2 12.9 0.00 0.00 0.00 58
20260510192419 11 53 4.8 12.9 0.00 0.00 0.00 58
20260510191205 11 62 3.2 11.3 0.00 0.00 0.00 58
20260510190205 12 60 1.6 6.4 0.00 0.00 0.00 59
20260510185205 12 62 3.2 12.9 0.00 0.00 0.00 58
20260510184205 12 63 4.8 11.3 0.00 0.00 0.00 58
20260510183205 12 63 4.8 11.3 0.00 0.00 0.00 58
20260510182205 12 64 6.4 14.5 0.00 0.00 0.00 58
20260510181205 12 64 4.8 12.9 0.00 0.00 0.00 59
20260510180205 12 66 8.0 16.1 0.00 0.00 0.00 58
20260510175205 12 67 6.4 12.9 0.00 0.00 0.00 59
20260510174419 12 53 3.2 8.0 0.00 0.00 0.00 59
20260510173205 12 50 6.4 12.9 0.00 0.00 0.00 57
20260510172206 12 59 6.4 16.1 0.00 0.00 0.00 59
20260510171416 13 57 6.4 17.7 0.00 0.00 0.00 59
20260510170205 12 48 6.4 20.9 0.00 0.00 0.00 60
20260510165205 12 52 8.0 19.3 0.00 0.00 0.00 60
20260510164204 12 58 6.4 14.5 0.00 0.00 0.00 61
20260510163415 12 56 6.4 22.5 0.00 0.00 0.00 61
20260510162205 12 55 6.4 14.5 0.00 0.00 0.00 61
20260510161205 12 44 6.4 14.5 0.00 0.00 0.00 61
20260510160418 12 25 4.8 12.9 0.00 0.00 0.00 62
20260510155205 12 41 6.4 14.5 0.00 0.00 0.00 64
20260510154205 12 59 8.0 14.5 0.00 0.00 0.00 63
20260510153205 12 59 6.4 12.9 0.00 0.00 0.00 65
20260510152417 12 58 8.0 24.1 0.00 0.00 0.00 65
20260510151205 12 61 6.4 12.9 0.00 0.00 0.00 66
20260510150419 12 63 6.4 12.9 0.00 0.00 0.00 67
20260510145205 12 53 8.0 14.5 0.00 0.00 0.00 67
20260510144416 12 51 4.8 14.5 0.00 0.00 0.00 67
20260510143204 12 63 6.4 16.1 0.00 0.00 0.00 68
20260510142205 11 62 8.0 17.7 0.00 0.00 0.00 69
20260510141205 11 59 8.0 14.5 0.00 0.00 0.00 69
20260510140205 11 62 9.7 20.9 0.00 0.00 0.00 69
20260510135415 11 57 8.0 20.9 0.00 0.00 0.00 71
20260510134416 11 54 9.7 20.9 0.00 0.00 0.00 71
20260510133204 11 51 8.0 19.3 0.00 0.00 0.00 71
20260510132418 11 50 8.0 20.9 0.00 0.00 0.00 71
20260510131205 11 58 8.0 17.7 0.00 0.00 0.00 72
20260510130204 11 61 8.0 17.7 0.00 0.00 0.00 72
20260510125205 11 58 6.4 12.9 0.00 0.00 0.00 73
20260510124204 11 58 8.0 19.3 0.00 0.00 0.00 73
20260510123418 11 64 9.7 25.7 0.00 0.00 0.00 72
20260510122205 11 55 11.3 20.9 0.00 0.00 0.00 71
20260510121204 12 55 6.4 22.5 0.00 0.00 0.00 72
20260510120204 11 59 9.7 19.3 0.00 0.00 0.00 73
20260510115205 11 43 8.0 24.1 0.00 0.00 0.00 73
20260510114204 11 44 9.7 24.1 0.00 0.00 0.00 75
20260510113205 11 55 8.0 17.7 0.00 0.00 0.00 75
20260510112205 11 58 8.0 22.5 0.00 0.00 0.00 74
20260510111415 10 64 9.7 24.1 0.00 0.00 0.00 77
20260510110416 10 64 11.3 20.9 0.00 0.00 0.00 78
20260510105204 10 58 11.3 22.5 0.00 0.00 0.00 78
20260510104205 10 48 9.7 22.5 0.00 0.00 0.00 79
20260510103414 10 36 9.7 22.5 0.00 0.00 0.00 79
20260510102205 10 44 6.4 17.7 0.00 0.00 0.00 79
20260510101416 10 51 6.4 16.1 0.00 0.00 0.00 79
20260510100417 10 36 6.4 16.1 0.00 0.00 0.00 79
20260510095418 10 36 8.0 17.7 0.00 0.00 0.00 78
20260510094206 10 49 8.0 22.5 0.00 0.00 0.00 79
20260510093204 10 57 4.8 11.3 0.00 0.00 0.00 79
20260510092204 10 57 8.0 17.7 0.00 0.00 0.00 79
20260510091204 10 49 8.0 20.9 0.00 0.00 0.00 78
20260510090204 10 49 9.7 19.3 0.00 0.00 0.00 77
20260510085204 10 48 9.7 17.7 0.00 0.00 0.00 77
20260510084204 10 44 6.4 16.1 0.00 0.00 0.00 78
20260510083204 10 52 6.4 16.1 0.00 0.00 0.00 77
20260510082204 10 54 9.7 22.5 0.00 0.00 0.00 76
20260510081204 10 46 9.7 19.3 0.00 0.00 0.00 76
20260510080205 10 54 8.0 24.1 0.00 0.00 0.00 76
20260510075204 11 59 8.0 22.5 0.00 0.00 0.00 75
20260510074204 10 54 9.7 22.5 0.00 0.00 0.00 75
20260510073204 10 46 11.3 29.0 0.00 0.00 0.00 75
20260510072204 10 51 9.7 27.4 0.00 0.00 0.00 76
20260510071418 10 56 8.0 22.5 0.00 0.00 0.00 78
20260510070204 10 57 11.3 24.1 0.00 0.00 0.00 79
20260510065204 10 59 8.0 24.1 0.00 0.00 0.00 81
20260510064204 9 56 8.0 17.7 0.00 0.00 0.00 81
20260510063204 9 56 6.4 16.1 0.00 0.00 0.00 82
20260510062203 8 55 6.4 17.7 0.00 0.00 0.00 83
20260510061204 8 49 4.8 16.1 0.00 0.00 0.00 83
20260510060203 8 48 4.8 14.5 0.00 0.00 0.00 84
20260510055204 8 46 4.8 11.3 0.00 0.00 0.00 83
20260510054203 8 49 3.2 9.7 0.00 0.00 0.00 83
20260510053417 8 48 4.8 11.3 0.00 0.00 0.00 84
20260510052204 8 45 6.4 16.1 0.00 0.00 0.00 83
20260510051414 8 49 4.8 12.9 0.00 0.00 0.00 84
20260510050203 8 45 6.4 17.7 0.00 0.00 0.00 84
20260510045204 8 44 6.4 16.1 0.00 0.00 0.00 84
20260510044204 8 46 4.8 12.9 0.00 0.00 0.00 85
20260510043204 8 42 4.8 12.9 0.00 0.00 0.00 85
20260510042203 8 40 4.8 14.5 0.00 0.00 0.00 85
20260510041204 8 41 4.8 12.9 0.00 0.00 0.00 86
20260510040204 8 46 4.8 11.3 0.00 0.00 0.00 86
20260510035203 8 52 3.2 11.3 0.00 0.00 0.00 86
20260510034203 8 50 4.8 11.3 0.00 0.00 0.00 86
20260510033203 8 49 3.2 11.3 0.00 0.00 0.00 85
20260510032204 8 42 4.8 12.9 0.00 0.00 0.00 85
20260510031204 8 37 3.2 8.0 0.00 0.00 0.00 84
20260510030203 8 42 6.4 17.7 0.00 0.00 0.00 84
20260510025203 8 46 6.4 12.9 0.00 0.00 0.00 84
20260510024204 8 45 4.8 12.9 0.00 0.00 0.00 83
20260510023204 8 43 6.4 22.5 0.00 0.00 0.00 83
20260510022203 8 40 6.4 20.9 0.00 0.00 0.00 83
20260510021203 8 44 6.4 19.3 0.00 0.00 0.00 83
20260510020417 8 48 6.4 17.7 0.00 0.00 0.00 84
20260510015203 8 41 4.8 12.9 0.00 0.00 0.00 85
20260510014203 9 30 4.8 11.3 0.00 0.00 0.00 85
20260510013203 9 26 4.8 14.5 0.00 0.00 0.00 85
20260510012416 9 33 3.2 11.3 0.00 0.00 0.00 83
20260510011206 10 43 3.2 8.0 0.00 0.00 0.00 81
20260510010205 10 39 3.2 8.0 0.00 0.00 0.00 79
20260510005206 10 36 4.8 11.3 0.00 0.00 0.00 79
20260510004205 10 42 4.8 11.3 0.00 0.00 0.00 78
20260510003206 10 48 4.8 9.7 0.00 0.00 0.00 76
20260510002205 10 50 4.8 11.3 0.00 0.00 0.00 74
20260510001205 11 52 3.2 11.3 0.00 0.00 0.00 73
20260510000205 11 58 8.0 19.3 0.00 0.00 0.00 72
20260509235414 11 51 3.2 11.3 0.00 0.00 0.00 72
20260509234205 11 46 8.0 20.9 0.00 0.00 0.00 71
20260509233205 11 48 8.0 19.3 0.00 0.00 0.00 72
20260509232205 11 43 6.4 16.1 0.00 0.00 0.00 73
20260509231206 11 27 4.8 17.7 0.00 0.00 0.00 79
20260509230205 11 21 6.4 14.5 0.00 0.00 0.00 83
20260509225203 11 24 4.8 12.9 0.00 0.00 0.00 84
20260509224415 11 24 6.4 14.5 0.00 0.00 0.00 84
20260509223204 12 23 6.4 14.5 0.00 0.00 0.00 84
20260509222203 12 26 6.4 14.5 0.00 0.00 0.00 83
20260509221204 12 26 6.4 14.5 0.00 0.00 0.00 83
20260509220204 12 22 6.4 14.5 0.00 0.00 0.00 82
20260509215203 12 23 6.4 17.7 0.00 0.00 0.00 81